Location: B�rgermoos
(47.6500°N, 9.0667°E)
Time: 22:06:55
(UTC+00:00)

Vanguard 3 - Pass Details

Date: 09 August 2021
Orbit: 509 x 3260 km, 33.4° (Epoch: 27 September)

Event Time Altitude Azimuth Distance (km) Brightness Sun altitude
Rises 21:19:17 0° 273° (W) 6,373 12.2 -20.4°
Reaches altitude 10° 21:24:37 10° 260° (W) 5,705 11.7 -20.9°
Maximum altitude 21:36:49 23° 218° (SW) 5,136 11.0 -22.0°
Enters shadow 21:45:42 16° 187° (S) 5,637 10.9 -22.7°
